Louisville, KY

11:09 PM EST on February 12, 2016 (GMT -0500)
Louisville International-Standiford

Weather History for KSDF - February, 2014

Change the Weather History Date:

Saturday, February 22, 2014

  Actual Average Record
Temperature  
Mean Temperature 51 °F 41 °F  
Max Temperature 64 °F 50 °F 71 °F (1992)
Min Temperature 37 °F 32 °F -2 °F (1963)
Degree Days  
Heating Degree Days 14 24  
Month to date heating degree days 686 592  
Since 1 July heating degree days 3446 3101  
Cooling Degree Days 0 0  
Month to date cooling degree days 0 0  
Year to date cooling degree days 0 0  
Moisture  
Dew Point 21 °F    
Average Humidity 39    
Maximum Humidity 58    
Minimum Humidity 20    
Precipitation  
Precipitation 0.00 in 0.12 in 1.45 in (1994)
Month to date precipitation 3.68 2.49  
Year to date precipitation 6.09 5.73  
Snow  
Snow 0.00 in 0.20 in 1.10 in (1914)
Month to date snowfall 7.1 3.8  
Since 1 July snowfall 21.2 10.3  
Snow Depth 0.00 in    
Sea Level Pressure  
Sea Level Pressure 30.01 in    
Wind  
Wind Speed 9 mph (SW)    
Max Wind Speed 20 mph    
Max Gust Speed 24 mph    
Visibility 10 miles    
Events      
T = Trace of Precipitation, MM = Missing Value Source: NWS Daily Summary

Daily Weather History Graph

Daily Weather History Graph

Search for Another Location

Airport or City:

Trip Planner

Search our weather history database for the weather conditions in past years. The results will help you decide how hot, cold, wet, or windy it might be!

Date:

Astronomy

Feb. 22, 2014 Rise Set
Actual Time 7:24 AM EST 6:29 PM EST
Civil Twilight 6:57 AM EST 6:55 PM EST
Nautical Twilight 6:26 AM EST 7:26 PM EST
Astronomical Twilight 5:56 AM EST 7:57 PM EST
Moon 1:16 AM EST (2/22) 11:41 AM EST (2/22)
Length of Visible Light 11h 58m
Length of Day
11h 04m
Waning Gibbous, 50% of the Moon is Illuminated
Feb 22
Waning Gibbous
Feb 22
Last Quarter
Mar 1
New
Mar 8
First Quarter
Mar 16
Full

Hourly Weather History & Observations

Time (EST) Temp. Windchill Dew Point Humidity Pressure Visibility Wind Dir Wind Speed Gust Speed Precip Events Conditions
12:56 AM 46.0 °F 41.4 °F 17.1 °F 31% 30.01 in 10.0 mi SSW 9.2 mph - N/A   Partly Cloudy
1:56 AM 45.0 °F 38.9 °F 18.0 °F 34% 30.01 in 10.0 mi SSW 12.7 mph - N/A   Partly Cloudy
2:56 AM 45.0 °F 38.2 °F 18.0 °F 34% 29.99 in 10.0 mi SSW 15.0 mph 21.9 mph N/A   Clear
3:56 AM 46.0 °F 39.9 °F 18.0 °F 33% 29.99 in 10.0 mi SW 13.8 mph 21.9 mph N/A   Clear
4:56 AM 41.0 °F 37.1 °F 19.0 °F 41% 30.04 in 10.0 mi WNW 5.8 mph - N/A   Clear
5:56 AM 42.1 °F 38.4 °F 19.0 °F 40% 30.05 in 10.0 mi SSW 5.8 mph - N/A   Clear
6:56 AM 41.0 °F 39.0 °F 19.0 °F 41% 30.07 in 10.0 mi SW 3.5 mph - N/A   Partly Cloudy
7:56 AM 37.9 °F 35.5 °F 21.0 °F 51% 30.09 in 10.0 mi SE 3.5 mph - N/A   Scattered Clouds
8:56 AM 43.0 °F 41.3 °F 23.0 °F 45% 30.10 in 10.0 mi South 3.5 mph - N/A   Scattered Clouds
9:56 AM 50.0 °F - 23.0 °F 35% 30.10 in 10.0 mi WSW 9.2 mph - N/A   Scattered Clouds
10:56 AM 53.1 °F - 25.0 °F 34% 30.09 in 10.0 mi SW 5.8 mph - N/A   Mostly Cloudy
11:56 AM 55.9 °F - 25.0 °F 30% 30.07 in 10.0 mi SSW 9.2 mph - N/A   Mostly Cloudy
12:56 PM 60.1 °F - 23.0 °F 24% 30.04 in 10.0 mi SW 10.4 mph - N/A   Mostly Cloudy
1:56 PM 63.0 °F - 23.0 °F 22% 30.00 in 10.0 mi WSW 16.1 mph 21.9 mph N/A   Mostly Cloudy
2:56 PM 63.0 °F - 21.9 °F 21% 29.97 in 10.0 mi WSW 11.5 mph 19.6 mph N/A   Mostly Cloudy
3:56 PM 63.0 °F - 21.0 °F 20% 29.96 in 10.0 mi SW 11.5 mph 20.7 mph N/A   Mostly Cloudy
4:56 PM 63.0 °F - 21.0 °F 20% 29.94 in 10.0 mi WSW 9.2 mph - N/A   Mostly Cloudy
5:56 PM 61.0 °F - 21.0 °F 21% 29.94 in 10.0 mi SW 8.1 mph - N/A   Mostly Cloudy
6:56 PM 59.0 °F - 19.9 °F 22% 29.93 in 10.0 mi South 5.8 mph - N/A   Mostly Cloudy
7:56 PM 55.9 °F - 19.9 °F 25% 29.94 in 10.0 mi South 5.8 mph - N/A   Scattered Clouds
8:56 PM 55.0 °F - 19.9 °F 25% 29.94 in 10.0 mi SSE 4.6 mph - N/A   Scattered Clouds
9:56 PM 51.1 °F - 21.9 °F 32% 29.95 in 10.0 mi ENE 3.5 mph - N/A   Mostly Cloudy
10:56 PM 46.0 °F 39.0 °F 32.0 °F 58% 29.97 in 10.0 mi North 17.3 mph - N/A   Overcast
11:56 PM 42.1 °F 35.7 °F 30.9 °F 65% 29.99 in 10.0 mi North 11.5 mph 21.9 mph N/A   Scattered Clouds